946  
ASUS41 KGYX 290010  
RWRGYX  
WEATHER ROUNDUP FOR MAINE AND NEW HAMPSHIRE  
NATIONAL WEATHER SERVICE GRAY ME  
700 PM EST MON NOV 28 2022  
 
MEZ002-005-006-010-012-015-018-020-021-024-026-027-029-290100-  
MAINE  
 
CITY SKY/WX TMP DP RH WIND PRES REMARKS
 
PORTLAND CLEAR 39 28 64 NW13 29.85R  
6HR MIN TEMP: 39; 6HR MAX TEMP: 48;  
 
SANFORD CLEAR 38 31 76 W8 29.86R  
BAR HARBOR CLEAR 37 29 72 NW6 29.79R  
WISCASSET CLEAR 39 29 67 VRB3 29.84R  
6HR MIN TEMP: 39; 6HR MAX TEMP: 48;  
 
ROCKLAND PTCLDY 40 32 73 NW3 29.81R  
FRYEBURG CLEAR 38 27 64 W8G22 29.85R  
6HR MIN TEMP: 36; 6HR MAX TEMP: 46;  
 
LEWISTONAUBURN PTCLDY 37 28 70 NW5 29.85R  
AUGUSTA CLEAR 38 28 67 NW8 29.82R  
6HR MIN TEMP: 37; 6HR MAX TEMP: 47;  
 
WATERVILLE CLEAR 36 29 75 NW8 29.80R  
BANGOR MOCLDY 38 31 76 NW6 29.80R  
6HR MIN TEMP: 36; 6HR MAX TEMP: 45; 6HR PCP: TRACE;  
 
GREENVILLE N/A 31 24 75 NW14G31 29.75R  
6HR MIN TEMP: 31; 6HR MAX TEMP: 36;  
 
MILLINOCKET CLOUDY 34 27 75 VRB5 29.79R  
6HR MIN TEMP: 34; 6HR MAX TEMP: 42;  
 
HOULTON CLOUDY 33 25 72 N8 29.76R  
6HR MIN TEMP: 33; 6HR MAX TEMP: 36;  
 
PRESQUE ISLE CLOUDY 31 23 72 NW18G24 29.79R WCI 19  
6HR MIN TEMP: 31; 6HR MAX TEMP: 36; 6HR PCP: TRACE;  
 
FRENCHVILLE CLOUDY 30 18 60 NW22G30 29.76R WCI 17  
6HR MIN TEMP: 29; 6HR MAX TEMP: 37; 6HR PCP: TRACE;  
 
CARIBOU CLOUDY 30 20 66 NW14G29 29.76R WCI 19  
6HR MIN TEMP: 30; 6HR MAX TEMP: 35; 6HR PCP: TRACE;  
 

 
 
NHZ002-005-008-009-011-012-014-290100-  
NEW HAMPSHIRE  
 
CITY SKY/WX TMP DP RH WIND PRES REMARKS
 
PORTSMOUTH PTCLDY 39 30 69 W13 29.86R  
ROCHESTER CLEAR 40 30 67 NW13 29.85R  
6HR MIN TEMP: 40; 6HR MAX TEMP: 50;  
 
NASHUA PTCLDY 40 29 64 NW9G16 29.90R  
MANCHESTER PTCLDY 42 30 62 NW10 29.87R  
6HR MIN TEMP: 41; 6HR MAX TEMP: 50;  
 
CONCORD PTCLDY 38 31 76 N10G18 29.88R  
6HR MIN TEMP: 38; 6HR MAX TEMP: 46;  
 
LACONIA CLOUDY 38 29 70 NW3 29.88R  
BERLIN CLOUDY 34 27 75 VRB5 29.86R  
6HR MIN TEMP: 33; 6HR MAX TEMP: 37; 6HR PCP: TRACE;  
 
WHITEFIELD CLOUDY 33 26 75 W3 29.88R  
6HR MIN TEMP: 33; 6HR MAX TEMP: 35; 6HR PCP: 0.01;  
 
JAFFREY CLEAR 37 29 72 VRB5 29.88R  
6HR MIN TEMP: 36; 6HR MAX TEMP: 46;  
 
KEENE PTCLDY 35 31 85 CALM N/A  
LEBANON CLOUDY 38 28 67 N12 29.91R  
6HR MIN TEMP: 38; 6HR MAX TEMP: 44; 6HR PCP: 0.01;  
 
MT WASHINGTON SNOW 12 12 100 NW56 N/A VSB 0 WCI -15  
6HR MIN TEMP: 13; 6HR MAX TEMP: 18; 6HR PCP: 0.52;  
 

 
 
VTZ005-007-008-290100-  
VERMONT  
 
CITY SKY/WX TMP DP RH WIND PRES REMARKS
 
ST JOHNSBURY N/A 35 26 69 MISG 29.90R  
MONTPELIER CLOUDY 34 27 75 NW9 29.95R  
BURLINGTON CLOUDY 35 25 66 N12 29.98R  

 
 
MAZ007-012-024-CTZ003-RIZ002-NYZ038-NYZ072-290100-  
SOUTHERN NEW ENGLAND AND NY  
 
CITY SKY/WX TMP DP RH WIND PRES REMARKS
 
BOSTON CLEAR 44 30 57 NW12 29.87R  
WORCESTER CLEAR 41 28 60 NW8 29.86R  
NANTUCKET CLEAR 49 38 65 NW13 29.83R  
PROVIDENCE CLEAR 44 31 60 NW9 29.87R  
HARTFORD MOCLDY 43 32 65 NW16G24 29.91R  
ALBANY PTCLDY 37 29 72 W10 29.97R  
NEW YORK CITY PTCLDY 47 33 58 NW16 29.95R  

 
 
ANZ081-ANZ082-ANZ150-NHZ014-MEZ023>029-290100-  
COASTAL MARINE OBSERVATIONS  
 
STATION/POSITION TIME TEMP WIND PRES WAVE
 
AIR SEA DIR/SP/G HT/PER  
(UTC) (F) (DEG/KT/KT) (MB) (FT/S)  
MOUNT DESERT ROC 0000 42 330/ 22/ 24 1008.1R  
MATINICUS ROCK 2300 44 330/ 22/ 25 1007.9R  
ISLE OF SHOALS 2300 44 310/ 21/ 23 1008.9R  
JEFFREYS LEDGE 2326 51 N/A 6/ 5  
CASHES LEDGE BUO 2350 46 51 330/ 21/ 27 1008.7R 7/10  
GEORGES BANK BUO 2350 54 1006.9R 12/12  

 
   
............KEY...........
 
 
WCI - WIND CHILL  
TC - TEMPERATURE IN CELSIUS  
VSB - VISIBILITY
IN MILES  
HX - HEAT INDEX  
FAIR- INDICATES FEW OR NO CLOUDS BELOW 12,000 FT, WITH NO  
SIGNIFICANT WEATHER AND/OR S TO VISIBILITY.  
 
 
 
CLICK HERE TO GO TO PREVIOUS BULLETINS.

The Nexlab ME Page
The Nexlab NH Page Main Text Page